Date String (YYYY-MM-DD hh:mm:ss) UTC,Instrument flags,Ambient pressure (hPa),Sample flow (lpm),Bypass flow (lpm),Sample temperature (°C),Ambient temperature (°C),ASC tube jacket temperature (°C),LED temperature (°C),Box temperature (°C),Sample RH (%),Span deviation,Mass concentration (μg/m³),Mass concentration (μg/m³),Mass concentration (μg/m³)
DateTimeUTC,F1_M11,P_M11,Q1_M11,Q2_M11,T1_M11,T2_M11,T3_M11,T4_M11,T5_M11,U1_M11,ZSPAN_M11,X0_M11,X2_M11,X1_M11
2021-11-04 01:00:00,,0831.2,5.00,0.00,29.4,28.6,00.0,38.5,31.2,14.9,0000.0,0007.97,0004.00,0003.71
2021-11-04 01:01:00,,0831.2,4.99,0.00,29.4,28.6,00.0,38.5,31.2,14.9,0000.0,0008.06,0004.00,0003.68
2021-11-04 01:02:00,,0831.2,5.00,0.00,29.4,28.6,00.0,38.5,31.2,14.8,0000.0,0008.04,0003.99,0003.67
2021-11-04 01:03:00,,0831.2,4.99,0.00,29.4,28.6,00.0,38.5,31.2,14.8,0000.0,0007.94,0004.04,0003.69
2021-11-04 01:04:00,,0831.2,5.01,0.00,29.4,28.6,00.0,38.5,31.1,14.7,0000.0,0007.54,0004.09,0003.71
2021-11-04 01:05:00,,0831.2,5.00,0.00,29.4,28.6,00.0,38.5,31.1,14.7,0000.0,0007.48,0004.11,0003.74
2021-11-04 01:06:00,,0831.2,5.01,0.00,29.4,28.6,00.0,38.5,31.2,14.8,0000.0,0007.45,0004.11,0003.74
2021-11-04 01:07:00,,0831.2,5.00,0.00,29.4,28.6,00.0,38.5,31.1,14.9,0000.0,0007.35,0004.11,0003.75
2021-11-04 01:08:00,,0831.2,5.00,0.00,29.4,28.5,00.0,38.5,31.1,15.0,0000.0,0007.04,0004.15,0003.76
2021-11-04 01:09:00,,0831.2,5.00,0.00,29.4,28.5,00.0,38.5,31.1,15.0,0000.0,0007.20,0004.16,0003.75
2021-11-04 01:10:00,,0831.2,5.00,0.00,29.4,28.5,00.0,38.5,31.1,15.0,0000.0,0007.37,0004.15,0003.73
2021-11-04 01:11:00,,0831.2,4.99,0.00,29.4,28.5,00.0,38.5,31.1,15.0,0000.4,0007.71,0004.14,0003.72
2021-11-04 01:12:00,,0831.2,5.00,0.00,29.4,28.5,00.0,38.5,31.1,15.0,0000.0,0007.77,0004.13,0003.73
2021-11-04 01:13:00,,0831.2,4.99,0.00,29.4,28.5,00.0,38.5,31.1,15.0,0000.0,0007.74,0004.11,0003.73
2021-11-04 01:14:00,,0831.2,5.00,0.00,29.3,28.5,00.0,38.4,31.1,15.0,0000.0,0007.59,0004.05,0003.72
2021-11-04 01:15:00,,0831.2,5.01,0.00,29.3,28.5,00.0,38.4,31.0,15.0,0000.0,0007.54,0004.02,0003.69
2021-11-04 01:16:00,,0831.2,4.99,0.00,29.3,28.5,00.0,38.4,31.0,15.0,0000.0,0007.43,0004.00,0003.68
2021-11-04 01:17:00,,0831.2,5.00,0.00,29.3,28.5,00.0,38.4,31.0,15.0,0000.0,0007.37,0003.98,0003.67
2021-11-04 01:18:00,,0831.2,5.00,0.00,29.3,28.5,00.0,38.4,31.0,15.0,0000.0,0007.90,0003.97,0003.68
2021-11-04 01:19:00,,0831.2,5.00,0.00,29.3,28.4,00.0,38.4,31.0,15.0,0000.0,0008.00,0003.97,0003.69
2021-11-04 01:20:00,,0831.2,5.00,0.00,29.3,28.4,00.0,38.4,31.0,15.0,0000.0,0008.03,0003.98,0003.71
2021-11-04 01:21:00,,0831.2,5.00,0.00,29.3,28.4,00.0,38.4,31.0,15.0,0000.0,0008.04,0003.98,0003.71
2021-11-04 01:22:00,,0831.2,4.99,0.00,29.3,28.4,00.0,38.4,31.0,15.0,0000.0,0007.84,0004.00,0003.71
2021-11-04 01:23:00,,0831.2,5.00,0.00,29.3,28.4,00.0,38.4,31.0,15.1,0000.0,0008.32,0004.01,0003.71
2021-11-04 01:24:00,,0831.2,4.99,0.00,29.3,28.4,00.0,38.4,31.0,15.1,0000.0,0008.68,0004.03,0003.71
2021-11-04 01:25:00,,0831.2,5.00,0.00,29.2,28.4,00.0,38.4,31.0,15.0,0000.0,0008.74,0004.06,0003.72
2021-11-04 01:26:00,,0831.2,5.01,0.00,29.2,28.4,00.0,38.4,31.0,15.0,0000.0,0008.77,0004.08,0003.73
2021-11-04 01:27:00,,0831.2,4.99,0.00,29.2,28.4,00.0,38.4,30.9,15.0,0000.0,0009.02,0004.06,0003.73
2021-11-04 01:28:00,,0831.2,4.99,0.00,29.2,28.4,00.0,38.4,31.0,15.0,0000.0,0009.92,0004.09,0003.74
2021-11-04 01:29:00,,0831.2,5.02,0.00,29.2,28.4,00.0,38.3,30.9,15.0,0000.0,0009.50,0004.11,0003.74
2021-11-04 01:30:00,,0831.1,4.99,0.00,29.2,28.4,00.0,38.3,30.9,15.1,0000.0,0009.29,0004.14,0003.74
2021-11-04 01:31:00,,0831.2,5.00,0.00,29.2,28.3,00.0,38.3,30.9,15.1,0000.0,0009.28,0004.16,0003.73
2021-11-04 01:32:00,,0831.2,5.00,0.00,29.2,28.3,00.0,38.3,30.9,15.1,0000.0,0009.33,0004.16,0003.73
2021-11-04 01:33:00,,0831.2,5.00,0.00,29.2,28.3,00.0,38.3,30.9,15.0,0000.0,0009.51,0004.18,0003.73
2021-11-04 01:34:00,,0831.2,5.00,0.00,29.2,28.3,00.0,38.3,30.9,15.0,0000.0,0008.93,0004.15,0003.73
2021-11-04 01:35:00,,0831.2,5.01,0.00,29.2,28.3,00.0,38.3,30.9,14.9,0000.0,0008.41,0004.13,0003.74
2021-11-04 01:36:00,,0831.2,5.00,0.00,29.2,28.3,00.0,38.3,30.9,14.9,0000.0,0008.62,0004.14,0003.74
2021-11-04 01:37:00,,0831.2,5.01,0.00,29.2,28.3,00.0,38.3,30.9,14.9,0000.0,0008.89,0004.14,0003.74
2021-11-04 01:38:00,,0831.2,5.01,0.00,29.1,28.3,00.0,38.3,30.9,14.9,0000.0,0008.86,0004.17,0003.75
2021-11-04 01:39:00,,0831.2,5.01,0.00,29.1,28.3,00.0,38.3,30.9,14.9,0000.0,0008.12,0004.17,0003.76
2021-11-04 01:40:00,,0831.2,5.00,0.00,29.1,28.3,00.0,38.3,30.8,14.9,0000.0,0008.00,0004.16,0003.76
2021-11-04 01:41:00,,0831.2,5.00,0.00,29.1,28.3,00.0,38.3,30.8,14.9,0000.0,0007.94,0004.13,0003.76
2021-11-04 01:42:00,,0831.2,5.00,0.00,29.1,28.3,00.0,38.3,30.8,14.8,0000.0,0007.85,0004.10,0003.77
2021-11-04 01:43:00,,0831.2,4.99,0.00,29.1,28.3,00.0,38.3,30.8,14.8,0000.0,0007.68,0004.09,0003.77
2021-11-04 01:44:00,,0831.2,5.01,0.00,29.1,28.2,00.0,38.2,30.8,14.8,0000.0,0007.41,0004.10,0003.79
2021-11-04 01:45:00,,0831.2,5.00,0.00,29.1,28.2,00.0,38.2,30.8,14.8,0000.0,0007.39,0004.11,0003.80
2021-11-04 01:46:00,,0831.2,5.00,0.00,29.1,28.2,00.0,38.2,30.8,14.8,0000.0,0007.45,0004.14,0003.81
2021-11-04 01:47:00,,0831.2,4.99,0.00,29.1,28.2,00.0,38.2,30.8,14.8,0000.0,0007.22,0004.14,0003.81
2021-11-04 01:48:00,,0831.2,5.01,0.00,29.1,28.2,00.0,38.2,30.8,14.8,0000.0,0007.10,0004.16,0003.82
2021-11-04 01:49:00,,0831.2,5.00,0.00,29.1,28.2,00.0,38.2,30.8,14.8,0000.0,0007.00,0004.16,0003.82
2021-11-04 01:50:00,,0831.2,4.99,0.00,29.1,28.2,00.0,38.2,30.8,14.9,0000.0,0007.57,0004.15,0003.83
2021-11-04 01:51:00,,0831.2,5.00,0.00,29.0,28.2,00.0,38.2,30.8,14.9,0000.0,0007.62,0004.18,0003.83
2021-11-04 01:52:00,,0831.2,5.00,0.00,29.0,28.2,00.0,38.2,30.7,14.9,0000.0,0007.71,0004.20,0003.83
2021-11-04 01:53:00,,0831.2,4.99,0.00,29.0,28.2,00.0,38.2,30.7,14.9,0000.0,0007.69,0004.19,0003.83
2021-11-04 01:54:00,,0831.2,5.00,0.00,29.0,28.2,00.0,38.2,30.7,14.7,0000.0,0007.67,0004.18,0003.84
2021-11-04 01:55:00,,0831.2,5.00,0.00,29.0,28.1,00.0,38.2,30.7,14.7,0000.0,0007.64,0004.18,0003.86
2021-11-04 01:56:00,,0831.2,5.01,0.00,29.0,28.1,00.0,38.2,30.7,14.7,0000.0,0007.60,0004.16,0003.86
2021-11-04 01:57:00,,0831.2,4.98,0.00,29.0,28.1,00.0,38.1,30.7,14.7,0000.0,0007.63,0004.18,0003.86
2021-11-04 01:58:00,,0831.2,5.00,0.00,29.0,28.1,00.0,38.1,30.7,14.7,0000.0,0008.05,0004.21,0003.88
2021-11-04 01:59:00,,0831.2,5.00,0.00,29.0,28.1,00.0,38.1,30.7,14.7,0000.0,0008.37,0004.20,0003.89
